CZ-6A DEB

Satellite information

Favourite Embed

Satellite Type and Status

DEBRISIN ORBIT

Key statistics

Satellite CZ-6A DEB at a glance.

Uptime

1076

Days in orbit

Revolutions

≈ 14.4

Per day

Orbit

SSO

Sun Synchronous Orbit

Inclination

98.6

Latest

Satellite identification and parameters

Extended collection of information and parameters for CZ-6A DEB.

Object identification

Identified? True

Debris? True

Object name: CZ-6A DEB

International designator: 2022-151X

Object number (NORAD): 54280

Object ID (CCSDS): 54280

Country: PEOPLES REPUBLIC OF CHINA (PRC)

Current information (Y/N): Y

RCS size: SMALL

Orbital parameters

Period: 100.175 minutes

Inclination: 98.6254 deg

SMA: 7144.97 km

Apoapsis: 825.464 km

Periapsis: 708.205 km

RAAN: 312.5629 deg

Eccentricy: 0.00820568

Argument of periapsis: 24.1474 deg

Mean anomaly: 336.3525 deg

Mean motion: 14.37481197 rev/day

Mean motion (dot): 0.0000397 rev/day2

B* drag term: 0.0012899558 1/REarth

Two-line elements (TLE)

Creation date: Oct. 20, 2025, 6:08 p.m.

Reference frame: TEME

Reference center: EARTH

Epoch: Oct. 20, 2025, 12:15 p.m. UTC

TLE line 0: 0 CZ-6A DEB

TLE line 1: 1 54280U 22151X 25293.51060262 .00003970 00000-0 12900-2 0 9996

TLE line 2: 2 54280 98.6254 312.5629 0082057 24.1474 336.3525 14.37481197153211

Live tracking on map

Real-time ground track for satellite CZ-6A DEB.

In-orbit conjunctions

A list of the most updated potential collisions computed for object CZ-6A DEB.

Target Orbit TCA Probability of collision Miss distance Type
SL-8 DEB LEO 2025-10-19 09:51:28 0.0007039283 77.0 (m) DEBRIS
SL-16 DEB LEO 2025-04-03 21:42:03 0.0001415738 51.0 (m) DEBRIS
IRIDIUM 17 LEO 2025-02-25 19:20:20 0.01221906 41.0 (m) PAYLOAD

Associated space launch

Chinese satellite reported for atmospheric/ocean/environmental/spatial parameter research purposes, details TBD.

CZ-6A DEB was lifted into orbit during the mission ‘Long March 6A | Yunhai 3’, on board a Long March 6A space rocket.

The launch took place on Nov. 11, 2022, 10:52 p.m. from Launch Complex 9A.

For more information about the launch, click the button.

Launch to space Long March 6A | Yunhai 3
Long March 6A | Yunhai 3

Agency: N/A

Status: Launch Successful

Launch date: Nov. 11, 2022, 10:52 p.m. UTC

Rocket: Long March 6A

Launch pad: Launch Complex 9A

Location: Taiyuan Satellite Launch Center, People's Republic of China

...

Latest news about this satellite

There are no fresh news available about this satellite. Check back as we update our databases every day.


Newsletter sign-up

Weekly statistics, charts and insights to help you stay on top of the space industry.